QPF
0.00 0.00 0.00 0.00 0.00 0.00 0.00 0.00 0.00 0.00 0.00 0.00 0.00 0.00 0.00 0.00 0.00 0.00 0.00 0.00 0.00 0.00 0.00 0.00 0.00 0.00 0.00 0.00 0.00 0.00 0.00 0.00 0.00 0.00 0.00 0.00 0.00 0.00 0.00 0.00 0.00 0.00 0.00 0.00 0.00 0.00 0.00 0.00 0.00 0.00 0.00 0.00 0.00 0.00
0.00 0.00 0.00 0.00 0.00 0.00 0.00 0.00 0.00 0.00 0.00 0.00 0.00 0.00 0.00 0.00 0.00 0.00 0.00 0.00 0.00 0.00 0.00 0.00 0.00 0.00 0.00 0.00 0.00 0.00 0.00 0.00 0.00 0.00 0.00 0.00 0.00 0.00 0.00 0.00 0.00 0.00 0.00 0.00 0.00 0.00 0.00 0.00 0.00 0.00 0.00 0.00 0.00 0.00
0.00 0.00 0.00 0.00 0.00 0.00 0.00 0.00 0.00 0.00 0.00 0.00 0.00 0.00 0.00 0.00 0.00 0.00 0.00 0.00 0.00 0.00 0.00 0.00 0.00 0.00 0.00 0.00 0.00 0.00 0.00 0.00 0.00 0.00 0.00 0.00 0.00 0.00 0.00 0.00 0.00 0.00 0.00 0.00 0.00 0.00 0.00 0.00 0.00 0.00 0.00 0.00 0.00 0.00
0.00 0.00 0.00 0.00 0.00 0.00 0.00 0.00 0.00 0.00 0.00 0.00 0.00 0.00 0.00 0.00 0.00 0.00 0.00 0.00 0.00 0.00 0.00 0.00 0.00 0.00 0.00 0.00 0.00 0.00 0.00 0.00 0.00 0.00 0.00 0.00 0.00 0.00 0.00 0.00 0.00 0.00 0.00 0.00 0.00 0.00 0.00 0.00 0.00 0.00 0.00 0.00 0.00 0.00
0.00 0.00 0.00 0.00 0.00 0.00 0.00 0.00 0.00 0.00 0.00 0.00 0.01 0.00 0.01 0.00 0.00 0.00 0.00 0.00 0.00 0.00 0.00 0.00 0.00 0.00 0.00 0.00 0.00 0.00 0.00 0.00 0.00 0.00 0.00 0.00 0.00 0.00 0.00 0.00 0.00 0.00 0.00 0.00 0.00 0.00 0.00 0.00 0.00 0.00 0.00 0.00 0.00 0.00
0.00 0.00 0.00 0.00 0.00 0.00 0.00 0.00 0.00 0.00 0.00 0.00 0.00 0.00 0.00 0.00 0.00 0.00 0.00 0.00 0.00 0.03 0.02 0.01 0.00 0.00 0.00 0.00 0.00 0.00 0.00 0.00 0.00 0.00 0.00 0.00 0.00 0.00 0.00 0.00 0.00 0.00 0.00 0.00 0.00 0.00 0.00 0.00 0.00 0.00 0.00 0.00 0.00 0.00
0.00 0.00 0.00 0.00 0.00 0.00 0.00 0.00 0.00 0.00 0.00 0.00 0.00 0.00 0.00 0.00 0.00 0.00 0.00 0.00 0.00 0.01 0.02 0.02 0.00 0.00 0.01 0.00 0.00 0.00 0.00 0.00 0.00 0.00 0.00 0.00 0.00 0.00 0.00 0.00 0.00 0.00 0.00 0.00 0.00 0.00 0.00 0.00 0.00 0.00 0.00 0.00 0.00 0.00
0.00 0.00 0.00 0.00 0.00 0.00 0.00 0.00 0.00 0.00 0.00 0.00 0.00 0.00 0.00 0.00 0.00 0.00 0.00 0.00 0.00 0.00 0.00 0.02 0.01 0.01 0.00 0.00 0.00 0.00 0.00 0.00 0.00 0.00 0.00 0.00 0.00 0.00 0.00 0.00 0.00 0.00 0.00 0.00 0.00 0.00 0.00 0.00 0.00 0.00 0.00 0.00 0.00 0.00
0.00 0.00 0.00 0.00 0.00 0.00 0.00 0.00 0.00 0.00 0.00 0.00 0.00 0.00 0.00 0.00 0.00 0.00 0.00 0.00 0.00 0.00 0.00 0.03 0.01 0.00 0.00 0.00 0.00 0.00 0.00 0.00 0.00 0.00 0.00 0.00 0.00 0.00 0.00 0.00 0.00 0.00 0.00 0.00 0.00 0.00 0.00 0.00 0.00 0.00 0.00 0.00 0.00 0.00
0.00 0.00 0.00 0.00 0.00 0.00 0.00 0.00 0.00 0.00 0.00 0.00 0.00 0.00 0.00 0.00 0.00 0.00 0.00 0.00 0.00 0.00 0.00 0.01 0.01 0.00 0.00 0.00 0.00 0.00 0.00 0.00 0.00 0.00 0.00 0.00 0.00 0.00 0.00 0.00 0.00 0.00 0.00 0.00 0.00 0.00 0.00 0.00 0.00 0.00 0.00 0.00 0.00 0.00
0.00 0.00 0.00 0.00 0.00 0.00 0.00 0.00 0.00 0.00 0.00 0.00 0.00 0.01 0.00 0.00 0.00 0.00 0.01 0.00 0.00 0.00 0.00 0.00 0.01 0.00 0.00 0.00 0.00 0.00 0.00 0.00 0.00 0.00 0.00 0.00 0.00 0.00 0.00 0.00 0.00 0.00 0.00 0.00 0.00 0.00 0.00 0.00 0.00 0.00 0.00 0.00 0.00 0.00
0.00 0.00 0.00 0.00 0.00 0.00 0.00 0.00 0.00 0.00 0.00 0.00 0.00 0.00 0.00 0.00 0.01 0.01 0.00 0.01 0.01 0.02 0.03 0.00 0.01 0.00 0.00 0.02 0.01 0.00 0.00 0.00 0.00 0.00 0.00 0.00 0.00 0.00 0.00 0.00 0.00 0.00 0.00 0.00 0.00 0.00 0.00 0.00 0.00 0.00 0.00 0.00 0.00 0.00
0.00 0.00 0.00 0.00 0.00 0.00 0.00 0.00 0.00 0.00 0.00 0.02 0.04 0.05 0.01 0.01 0.02 0.02 0.02 0.01 0.02 0.03 0.04 0.01 0.03 0.01 0.01 0.02 0.02 0.01 0.02 0.01 0.01 0.02 0.00 0.00 0.00 0.00 0.00 0.00 0.00 0.00 0.00 0.00 0.00 0.00 0.00 0.00 0.00 0.00 0.00 0.00 0.00 0.00
0.00 0.00 0.00 0.00 0.00 0.00 0.00 0.00 0.00 0.00 0.00 0.01 0.04 0.02 0.01 0.04 0.02 0.01 0.03 0.04 0.02 0.01 0.05 0.03 0.03 0.05 0.03 0.00 0.03 0.02 0.00 0.03 0.02 0.00 0.00 0.01 0.01 0.00 0.00 0.00 0.00 0.00 0.00 0.00 0.00 0.00 0.00 0.00 0.00 0.00 0.00 0.00 0.00 0.00
0.00 0.00 0.00 0.00 0.00 0.00 0.00 0.00 0.00 0.00 0.00 0.02 0.02 0.01 0.01 0.02 0.01 0.01 0.02 0.02 0.00 0.00 0.02 0.06 0.01 0.01 0.02 0.03 0.02 0.02 0.01 0.02 0.01 0.00 0.04 0.09 0.07 0.05 0.04 0.01 0.00 0.00 0.00 0.00 0.00 0.00 0.00 0.00 0.00 0.00 0.00 0.00 0.00 0.00
0.00 0.00 0.00 0.00 0.00 0.00 0.00 0.00 0.00 0.01 0.06 0.05 0.02 0.02 0.01 0.03 0.02 0.00 0.00 0.00 0.00 0.00 0.00 0.01 0.00 0.00 0.00 0.00 0.02 0.02 0.02 0.01 0.01 0.01 0.04 0.08 0.10 0.09 0.06 0.02 0.01 0.00 0.00 0.00 0.00 0.00 0.00 0.00 0.00 0.00 0.00 0.00 0.00 0.00
0.00 0.00 0.00 0.00 0.00 0.00 0.00 0.00 0.01 0.03 0.02 0.01 0.01 0.00 0.01 0.01 0.02 0.01 0.00 0.00 0.00 0.00 0.00 0.00 0.00 0.00 0.00 0.00 0.00 0.00 0.00 0.00 0.00 0.01 0.05 0.03 0.02 0.03 0.01 0.00 0.00 0.00 0.00 0.00 0.00 0.00 0.00 0.00 0.00 0.00 0.00 0.00 0.00 0.00
0.00 0.00 0.00 0.00 0.00 0.00 0.00 0.01 0.01 0.00 0.00 0.00 0.01 0.00 0.00 0.00 0.00 0.01 0.00 0.00 0.00 0.00 0.00 0.00 0.00 0.00 0.00 0.00 0.00 0.00 0.00 0.00 0.00 0.00 0.05 0.02 0.00 0.00 0.00 0.00 0.00 0.00 0.00 0.00 0.00 0.00 0.00 0.00 0.00 0.00 0.00 0.00 0.00 0.00
0.00 0.00 0.00 0.00 0.00 0.00 0.01 0.00 0.01 0.00 0.00 0.00 0.00 0.00 0.00 0.00 0.00 0.00 0.00 0.00 0.00 0.00 0.00 0.00 0.00 0.00 0.00 0.00 0.00 0.00 0.00 0.00 0.00 0.00 0.01 0.01 0.00 0.00 0.00 0.00 0.00 0.00 0.00 0.00 0.00 0.00 0.00 0.00 0.00 0.00 0.00 0.00 0.00 0.00
0.00 0.00 0.00 0.00 0.00 0.00 0.01 0.00 0.00 0.00 0.00 0.00 0.00 0.00 0.00 0.00 0.00 0.00 0.00 0.00 0.00 0.00 0.00 0.00 0.00 0.00 0.00 0.00 0.00 0.00 0.00 0.00 0.00 0.00 0.00 0.00 0.00 0.00 0.00 0.00 0.00 0.00 0.00 0.00 0.00 0.00 0.00 0.00 0.00 0.00 0.00 0.00 0.00 0.00
0.00 0.00 0.00 0.00 0.00 0.00 0.03 0.03 0.01 0.00 0.00 0.00 0.00 0.00 0.00 0.00 0.01 0.00 0.00 0.00 0.00 0.00 0.00 0.00 0.00 0.00 0.00 0.00 0.00 0.00 0.00 0.00 0.00 0.00 0.00 0.00 0.00 0.00 0.00 0.00 0.00 0.00 0.00 0.00 0.00 0.00 0.00 0.00 0.00 0.00 0.00 0.00 0.00 0.00
0.00 0.00 0.00 0.00 0.00 0.01 0.02 0.03 0.03 0.00 0.00 0.00 0.02 0.00 0.01 0.01 0.02 0.00 0.00 0.00 0.00 0.00 0.01 0.00 0.00 0.00 0.00 0.00 0.00 0.00 0.00 0.00 0.00 0.00 0.00 0.00 0.00 0.00 0.00 0.00 0.00 0.00 0.00 0.00 0.00 0.00 0.00 0.00 0.00 0.00 0.00 0.00 0.00 0.00
0.00 0.00 0.00 0.00 0.00 0.00 0.00 0.02 0.02 0.00 0.00 0.00 0.01 0.01 0.01 0.00 0.00 0.00 0.00 0.00 0.00 0.00 0.00 0.00 0.00 0.00 0.00 0.00 0.00 0.00 0.00 0.00 0.00 0.00 0.00 0.00 0.00 0.00 0.00 0.00 0.00 0.00 0.00 0.00 0.00 0.01 0.03 0.02 0.01 0.01 0.00 0.00 0.03 0.00
0.00 0.00 0.00 0.01 0.00 0.01 0.02 0.02 0.01 0.01 0.00 0.00 0.01 0.01 0.00 0.00 0.00 0.00 0.00 0.00 0.00 0.00 0.00 0.00 0.00 0.00 0.00 0.00 0.00 0.00 0.00 0.00 0.00 0.00 0.00 0.00 0.00 0.00 0.00 0.00 0.00 0.00 0.00 0.01 0.00 0.00 0.00 0.00 0.01 0.01 0.01 0.02 0.04 0.03
0.00 0.00 0.00 0.00 0.01 0.05 0.04 0.01 0.01 0.00 0.00 0.02 0.03 0.01 0.00 0.00 0.00 0.00 0.00 0.00 0.00 0.00 0.00 0.00 0.01 0.00 0.00 0.00 0.00 0.00 0.00 0.00 0.00 0.01 0.00 0.00 0.01 0.02 0.00 0.00 0.00 0.00 0.00 0.01 0.00 0.00 0.00 0.00 0.00 0.01 0.00 0.00 0.01 0.01
0.00 0.00 0.01 0.06 0.06 0.01 0.00 0.00 0.00 0.00 0.00 0.03 0.04 0.01 0.00 0.00 0.00 0.00 0.00 0.00 0.00 0.00 0.00 0.00 0.00 0.00 0.00 0.00 0.00 0.00 0.00 0.00 0.00 0.01 0.00 0.00 0.00 0.00 0.00 0.00 0.00 0.01 0.00 0.00 0.00 0.00 0.00 0.00 0.00 0.01 0.02 0.00 0.00 0.00
0.00 0.02 0.03 0.03 0.05 0.07 0.06 0.00 0.00 0.00 0.00 0.02 0.00 0.00 0.01 0.00 0.00 0.00 0.00 0.00 0.00 0.00 0.00 0.00 0.00 0.00 0.00 0.00 0.00 0.00 0.00 0.00 0.00 0.00 0.00 0.00 0.00 0.00 0.00 0.00 0.00 0.01 0.00 0.02 0.03 0.01 0.00 0.00 0.00 0.01 0.03 0.01 0.00 0.00
0.00 0.01 0.05 0.11 0.12 0.11 0.09 0.01 0.00 0.00 0.00 0.00 0.00 0.00 0.00 0.00 0.00 0.00 0.00 0.00 0.00 0.00 0.00 0.00 0.00 0.00 0.00 0.00 0.00 0.00 0.00 0.00 0.00 0.00 0.00 0.00 0.00 0.00 0.00 0.00 0.00 0.00 0.00 0.01 0.02 0.01 0.00 0.02 0.01 0.01 0.01 0.01 0.00 0.00
0.00 0.00 0.01 0.03 0.01 0.01 0.01 0.00 0.00 0.00 0.00 0.00 0.00 0.00 0.00 0.00 0.00 0.00 0.00 0.00 0.00 0.00 0.00 0.00 0.00 0.00 0.00 0.00 0.00 0.00 0.00 0.00 0.00 0.00 0.00 0.00 0.00 0.00 0.00 0.00 0.00 0.00 0.00 0.00 0.00 0.00 0.00 0.00 0.01 0.03 0.01 0.01 0.02 0.02
0.00 0.00 0.00 0.00 0.00 0.00 0.00 0.00 0.00 0.00 0.00 0.00 0.00 0.00 0.00 0.00 0.00 0.00 0.00 0.00 0.00 0.00 0.00 0.00 0.00 0.00 0.00 0.00 0.00 0.00 0.00 0.00 0.00 0.00 0.00 0.00 0.00 0.00 0.00 0.00 0.00 0.00 0.00 0.00 0.00 0.00 0.00 0.00 0.00 0.00 0.00 0.00 0.00 0.01
0.01 0.00 0.00 0.00 0.00 0.00 0.00 0.00 0.00 0.00 0.00 0.00 0.00 0.00 0.00 0.00 0.00 0.00 0.00 0.00 0.00 0.00 0.00 0.00 0.00 0.00 0.00 0.00 0.00 0.00 0.00 0.00 0.00 0.00 0.00 0.00 0.00 0.00 0.00 0.00 0.00 0.00 0.00 0.00 0.00 0.00 0.00 0.00 0.00 0.00 0.00 0.00 0.00 0.00
0.00 0.00 0.00 0.00 0.00 0.00 0.00 0.00 0.00 0.00 0.00 0.00 0.00 0.00 0.00 0.00 0.00 0.00 0.00 0.00 0.00 0.00 0.00 0.00 0.00 0.00 0.00 0.00 0.00 0.00 0.00 0.00 0.00 0.00 0.00 0.00 0.00 0.00 0.00 0.00 0.00 0.00 0.00 0.00 0.00 0.00 0.00 0.00 0.00 0.00 0.00 0.00 0.00 0.00
0.00 0.00 0.00 0.00 0.00 0.00 0.00 0.00 0.00 0.00 0.00 0.00 0.00 0.00 0.00 0.00 0.00 0.00 0.00 0.00 0.00 0.00 0.00 0.00 0.00 0.00 0.00 0.00 0.00 0.00 0.00 0.00 0.00 0.00 0.00 0.00 0.00 0.00 0.00 0.00 0.00 0.00 0.00 0.00 0.00 0.00 0.00 0.00 0.00 0.00 0.00 0.00 0.00 0.00
MSLP
1018.13 1017.34 1016.62 1015.79 1015.12 1014.43 1013.89 1013.48 1013.13 1012.93 1012.81 1012.65 1012.53 1012.55 1012.77 1012.81 1012.66 1012.89 1012.96 1013.29 1013.57 1013.44 1012.62 1011.95 1011.76 1011.85 1011.81 1011.76 1011.58 1010.40 1009.64 1009.47 1009.13 1009.94 1009.41 1008.83 1008.05 1008.47 1007.93 1008.10 1008.89 1009.95 1010.90 1011.74 1012.02 1011.77 1011.31 1010.10 1009.65 1010.00 1011.15 1012.58 1013.75 1014.28
1017.38 1016.64 1015.74 1014.89 1014.01 1013.19 1012.54 1012.12 1011.85 1011.64 1011.55 1011.51 1011.45 1011.54 1011.69 1011.97 1012.26 1012.49 1012.44 1012.38 1012.98 1013.53 1012.60 1012.01 1011.50 1011.03 1011.10 1011.05 1011.56 1011.42 1010.44 1010.28 1010.08 1010.58 1010.57 1009.67 1009.02 1008.76 1009.02 1008.73 1008.57 1009.10 1009.21 1010.44 1011.36 1011.39 1011.15 1010.58 1010.47 1011.11 1011.82 1012.90 1014.18 1014.61
1016.84 1015.98 1015.07 1014.12 1013.12 1012.11 1011.46 1011.15 1010.80 1010.53 1010.31 1010.27 1010.33 1010.44 1010.70 1010.98 1011.40 1011.82 1011.88 1012.37 1012.82 1013.03 1012.48 1012.05 1010.90 1010.25 1010.48 1010.62 1010.88 1011.32 1010.65 1010.46 1010.66 1010.00 1009.71 1009.51 1009.37 1009.13 1009.22 1008.82 1008.41 1008.40 1008.73 1010.08 1011.18 1012.21 1011.69 1011.49 1011.67 1011.88 1012.29 1013.14 1013.91 1014.50
1016.36 1015.53 1014.74 1013.91 1013.00 1012.14 1011.37 1010.77 1010.21 1009.64 1009.25 1009.17 1009.25 1009.46 1009.78 1010.23 1010.62 1011.05 1011.29 1011.60 1011.94 1012.44 1012.01 1010.62 1009.58 1009.87 1009.15 1009.93 1010.45 1010.68 1010.87 1010.52 1010.80 1010.21 1009.84 1009.53 1009.44 1008.77 1008.86 1008.27 1008.20 1008.37 1008.64 1010.08 1011.37 1012.15 1012.26 1012.22 1012.12 1012.28 1012.84 1013.29 1013.91 1014.46
1016.04 1015.25 1014.53 1013.86 1013.19 1012.42 1011.66 1010.90 1009.99 1008.82 1008.10 1008.27 1008.53 1008.82 1009.13 1009.47 1009.89 1010.34 1010.61 1010.90 1011.08 1011.62 1011.31 1010.49 1009.53 1009.03 1009.14 1009.56 1009.77 1010.21 1010.52 1010.88 1010.92 1010.05 1009.31 1008.86 1008.46 1008.48 1008.42 1008.42 1008.83 1008.63 1008.91 1009.82 1011.00 1011.10 1011.53 1012.27 1012.29 1012.50 1013.07 1013.63 1013.98 1014.38
1015.81 1015.16 1014.60 1013.97 1013.34 1012.69 1011.97 1011.24 1010.43 1009.48 1008.65 1008.27 1008.40 1008.63 1008.88 1009.15 1009.61 1010.02 1010.51 1010.72 1010.75 1011.14 1011.11 1010.45 1009.35 1008.93 1009.10 1009.39 1009.61 1010.03 1010.35 1010.72 1010.96 1009.32 1008.55 1007.92 1007.54 1008.13 1009.24 1009.89 1008.91 1008.59 1008.38 1008.54 1010.05 1010.96 1011.44 1012.05 1012.31 1012.65 1013.21 1013.61 1014.00 1014.43
1015.69 1015.18 1014.71 1014.15 1013.56 1012.98 1012.37 1011.64 1010.99 1010.36 1009.73 1009.13 1008.86 1009.01 1009.18 1009.39 1009.67 1010.00 1010.32 1010.32 1010.40 1010.90 1010.82 1010.10 1009.27 1008.99 1008.90 1009.17 1009.54 1009.83 1010.32 1010.13 1009.09 1008.51 1008.41 1007.94 1008.11 1008.22 1009.34 1009.83 1009.17 1009.24 1009.02 1009.34 1009.88 1010.66 1012.13 1012.39 1012.89 1013.00 1013.30 1013.79 1014.08 1014.63
1015.54 1015.14 1014.69 1014.18 1013.72 1013.17 1012.65 1012.11 1011.57 1011.15 1010.82 1010.45 1010.13 1010.01 1009.92 1009.89 1010.04 1010.14 1010.23 1010.17 1010.52 1010.72 1010.45 1009.60 1009.29 1008.87 1008.86 1009.27 1009.52 1009.12 1008.29 1008.16 1007.83 1007.52 1007.80 1008.14 1008.47 1008.82 1009.79 1009.43 1009.26 1009.74 1009.61 1010.21 1010.56 1010.76 1011.59 1012.43 1012.89 1013.34 1013.60 1014.00 1014.64 1015.11
1015.35 1015.02 1014.59 1014.07 1013.69 1013.23 1012.71 1012.17 1011.81 1011.51 1011.26 1011.05 1010.84 1010.59 1010.45 1010.10 1009.95 1010.32 1010.25 1010.46 1010.68 1011.07 1010.26 1009.10 1009.05 1009.29 1009.45 1009.30 1008.51 1007.57 1007.57 1008.26 1007.44 1007.43 1007.66 1008.01 1008.89 1009.15 1008.84 1008.79 1009.47 1009.79 1009.80 1010.60 1010.93 1011.37 1012.05 1012.61 1013.02 1013.34 1013.76 1014.24 1014.70 1015.07
1015.07 1014.81 1014.45 1014.05 1013.58 1013.18 1012.70 1012.16 1011.66 1011.12 1010.78 1010.71 1010.77 1010.62 1010.32 1010.07 1009.97 1010.31 1010.74 1010.88 1010.94 1010.41 1009.91 1009.05 1008.65 1008.69 1008.76 1008.09 1007.66 1007.51 1007.21 1007.39 1007.58 1007.60 1007.67 1008.31 1008.93 1008.22 1007.89 1007.92 1008.28 1009.02 1009.42 1010.06 1011.11 1011.95 1012.28 1012.86 1013.27 1013.57 1013.80 1014.08 1014.29 1014.60
1014.81 1014.51 1014.21 1013.88 1013.51 1013.11 1012.68 1012.17 1011.65 1011.07 1010.54 1010.80 1010.95 1011.06 1010.72 1010.36 1010.36 1010.09 1010.08 1010.16 1009.93 1009.88 1009.30 1008.48 1008.61 1008.33 1007.56 1007.35 1007.49 1007.35 1007.57 1007.81 1008.19 1008.10 1008.28 1008.81 1008.73 1008.18 1007.65 1007.81 1008.04 1008.61 1009.30 1009.90 1010.42 1011.35 1011.88 1012.59 1013.22 1013.68 1013.95 1014.04 1014.18 1014.25
1014.56 1014.28 1013.99 1013.67 1013.34 1013.05 1012.66 1012.23 1011.91 1011.60 1011.52 1011.31 1011.58 1011.18 1010.80 1010.49 1010.16 1010.05 1009.61 1009.06 1008.93 1009.42 1008.91 1008.64 1007.96 1007.98 1007.89 1007.64 1007.58 1007.74 1007.78 1008.17 1008.47 1008.23 1008.72 1008.98 1008.49 1007.65 1007.46 1008.07 1008.74 1009.07 1009.67 1010.45 1010.95 1011.70 1012.30 1012.78 1013.23 1013.70 1014.04 1014.26 1014.38 1014.52
1014.29 1014.02 1013.77 1013.46 1013.18 1012.93 1012.58 1012.27 1011.98 1011.66 1010.94 1011.03 1011.30 1011.19 1010.95 1010.51 1010.30 1010.20 1010.09 1009.74 1009.28 1009.23 1009.08 1008.59 1008.10 1007.84 1008.13 1008.62 1008.78 1008.84 1008.59 1008.79 1008.32 1009.07 1009.34 1009.23 1008.50 1008.11 1007.99 1008.47 1009.35 1009.73 1010.24 1010.95 1011.67 1012.18 1012.69 1013.12 1013.42 1013.65 1014.05 1014.24 1014.52 1014.71
1013.98 1013.73 1013.44 1013.18 1012.97 1012.75 1012.47 1012.15 1011.90 1011.57 1011.50 1011.27 1011.10 1011.00 1010.92 1010.52 1010.57 1010.54 1010.34 1010.09 1009.73 1009.47 1008.86 1008.80 1008.79 1008.97 1009.41 1009.77 1009.94 1010.10 1009.33 1009.25 1009.64 1010.24 1010.20 1009.79 1009.22 1008.77 1008.69 1008.95 1009.40 1010.42 1010.86 1011.58 1012.23 1012.67 1013.19 1013.58 1013.90 1014.06 1014.22 1014.41 1014.72 1015.10
1013.72 1013.45 1013.14 1012.69 1012.44 1012.32 1012.14 1011.83 1011.54 1011.65 1011.44 1011.19 1010.82 1011.10 1010.83 1010.71 1010.33 1010.03 1010.00 1010.02 1009.76 1009.49 1009.50 1009.63 1009.71 1009.88 1010.59 1011.02 1011.21 1010.46 1010.14 1010.34 1010.72 1011.16 1011.22 1010.92 1010.64 1010.29 1009.98 1010.10 1010.44 1011.15 1011.86 1012.56 1012.89 1013.34 1013.73 1013.98 1014.25 1014.49 1014.62 1014.74 1015.06 1015.41
1013.47 1013.14 1012.98 1012.42 1012.13 1011.96 1011.85 1011.56 1011.01 1011.04 1010.91 1010.79 1010.65 1010.84 1010.92 1010.92 1010.91 1010.53 1010.48 1010.54 1010.01 1009.86 1009.84 1010.23 1010.61 1011.00 1011.62 1011.59 1011.61 1011.33 1011.26 1011.66 1011.99 1012.03 1011.68 1011.36 1011.26 1011.37 1011.39 1011.54 1011.82 1012.22 1012.63 1013.16 1013.51 1013.86 1014.00 1014.22 1014.60 1014.96 1014.93 1015.12 1015.38 1015.56
1013.35 1013.11 1012.69 1012.28 1012.01 1011.66 1011.54 1011.79 1011.23 1010.82 1010.65 1010.61 1010.94 1010.82 1010.97 1011.25 1011.32 1011.18 1010.97 1010.80 1010.17 1010.43 1011.27 1011.58 1011.84 1012.44 1012.37 1012.28 1012.28 1012.35 1012.39 1012.69 1012.86 1012.48 1011.95 1011.72 1011.83 1012.34 1012.34 1012.40 1012.72 1012.98 1013.37 1013.68 1013.97 1014.34 1014.50 1014.69 1014.85 1015.20 1015.64 1015.94 1015.76 1015.83
1013.37 1012.96 1012.69 1012.34 1012.07 1011.67 1011.31 1011.46 1011.17 1010.74 1010.59 1010.82 1011.11 1011.12 1011.00 1011.12 1011.32 1011.33 1011.25 1010.98 1010.90 1011.42 1012.10 1012.68 1013.00 1013.20 1013.27 1013.23 1013.18 1013.30 1013.23 1013.06 1013.13 1012.72 1012.40 1012.27 1012.26 1012.75 1013.09 1013.29 1013.45 1013.60 1014.00 1014.23 1014.38 1014.70 1014.99 1015.24 1015.48 1015.87 1016.10 1016.04 1016.09 1016.22
1013.27 1013.02 1012.68 1012.46 1012.43 1012.44 1011.69 1010.79 1010.42 1010.51 1010.56 1010.63 1010.87 1010.86 1011.07 1011.34 1011.27 1011.23 1011.45 1011.43 1011.38 1011.76 1012.60 1012.97 1013.42 1013.72 1013.75 1013.68 1013.72 1013.64 1013.57 1013.54 1013.43 1013.25 1012.86 1012.84 1012.86 1013.08 1013.37 1013.56 1013.79 1014.19 1014.53 1014.73 1014.92 1015.14 1015.31 1015.42 1015.82 1016.22 1016.35 1016.33 1016.47 1016.52
1012.96 1012.41 1012.08 1012.22 1012.36 1012.30 1011.56 1010.61 1009.72 1010.19 1010.37 1010.40 1010.44 1010.89 1011.19 1011.55 1011.54 1011.55 1011.69 1011.75 1011.98 1012.29 1012.80 1013.42 1013.91 1013.83 1013.89 1013.79 1013.73 1013.72 1013.68 1013.66 1013.77 1013.75 1013.78 1013.64 1013.72 1013.75 1013.99 1014.23 1014.44 1014.76 1015.00 1015.20 1015.32 1015.59 1015.64 1015.85 1016.03 1016.04 1016.20 1016.41 1016.64 1016.65
1012.78 1011.94 1011.71 1012.09 1012.22 1012.32 1011.66 1010.66 1010.29 1010.22 1009.96 1010.08 1010.43 1010.88 1011.50 1011.42 1011.58 1011.72 1011.79 1011.67 1012.26 1012.77 1013.14 1013.31 1013.57 1013.71 1013.74 1013.76 1013.81 1013.79 1013.76 1013.76 1014.05 1014.15 1014.33 1014.50 1014.65 1014.37 1014.71 1015.01 1014.88 1014.95 1015.16 1015.39 1015.52 1015.74 1015.96 1016.23 1016.36 1016.33 1016.38 1016.51 1016.69 1016.77
1012.42 1011.97 1011.97 1011.87 1011.82 1011.26 1011.11 1010.29 1010.42 1010.18 1010.01 1010.08 1010.40 1010.80 1011.51 1011.71 1011.64 1011.47 1011.42 1012.12 1012.74 1012.75 1012.75 1013.05 1013.34 1013.66 1013.94 1014.17 1014.15 1014.06 1014.15 1014.28 1014.48 1014.67 1014.82 1014.84 1015.15 1015.38 1015.47 1015.33 1015.43 1015.48 1015.44 1015.43 1015.58 1015.86 1016.06 1016.15 1016.30 1016.43 1016.61 1016.67 1016.78 1016.90
1012.18 1011.84 1011.62 1011.35 1011.44 1011.44 1010.58 1009.96 1010.23 1010.09 1010.43 1010.48 1010.34 1010.88 1011.14 1011.16 1010.90 1010.68 1011.73 1012.27 1012.55 1012.32 1012.51 1012.89 1013.12 1013.38 1013.69 1013.82 1014.01 1014.21 1014.36 1014.62 1014.85 1014.95 1015.08 1015.16 1015.30 1015.42 1015.47 1015.39 1015.30 1015.47 1015.52 1015.29 1015.35 1015.66 1016.04 1016.20 1016.28 1016.36 1016.50 1016.73 1016.94 1017.23
1012.19 1012.00 1011.66 1011.45 1011.38 1011.25 1010.15 1010.08 1010.07 1010.30 1010.40 1010.52 1010.47 1010.24 1010.10 1010.14 1010.33 1010.98 1011.89 1012.31 1012.47 1012.48 1012.78 1013.05 1013.20 1013.57 1013.79 1013.89 1014.10 1014.12 1014.19 1014.48 1014.72 1014.90 1014.96 1015.11 1015.15 1015.00 1014.90 1014.87 1014.63 1014.58 1014.40 1015.05 1015.40 1015.88 1016.10 1016.12 1016.18 1016.43 1016.66 1016.79 1017.09 1017.47
1012.68 1012.33 1012.17 1011.83 1011.20 1010.80 1010.29 1010.16 1010.30 1010.39 1010.61 1010.37 1010.01 1009.19 1009.41 1009.77 1010.69 1011.03 1011.51 1012.04 1012.45 1012.54 1012.60 1012.66 1012.91 1013.33 1013.55 1013.53 1013.58 1013.58 1013.49 1013.78 1014.12 1014.45 1014.28 1014.34 1014.45 1014.49 1014.57 1014.44 1014.63 1014.73 1014.80 1015.17 1015.73 1015.87 1015.87 1015.76 1015.87 1016.11 1016.46 1016.78 1017.11 1017.52
1012.23 1011.61 1011.30 1010.58 1010.77 1010.91 1010.68 1010.66 1010.41 1010.38 1010.35 1009.92 1009.41 1008.93 1009.06 1009.98 1010.60 1010.68 1010.62 1010.79 1011.41 1011.69 1011.88 1012.06 1012.22 1012.62 1012.92 1012.77 1012.98 1013.01 1012.91 1013.03 1013.42 1013.69 1013.59 1013.54 1013.66 1013.90 1014.35 1014.70 1014.83 1014.92 1014.75 1014.99 1015.47 1015.83 1015.88 1015.82 1015.95 1016.41 1016.80 1016.96 1016.95 1017.13
1011.49 1010.69 1010.16 1010.11 1010.52 1010.51 1010.68 1010.33 1009.95 1009.96 1009.64 1009.21 1008.52 1008.57 1009.07 1009.43 1009.61 1009.52 1009.52 1009.69 1010.15 1010.20 1010.42 1010.66 1010.93 1011.19 1011.50 1011.54 1011.75 1011.81 1011.89 1012.30 1012.58 1012.44 1012.43 1012.71 1012.90 1012.87 1013.43 1013.87 1014.17 1014.27 1014.28 1014.75 1015.33 1015.52 1015.78 1015.95 1016.27 1016.48 1016.66 1017.08 1017.35 1017.34
1010.22 1009.69 1009.53 1009.02 1009.23 1009.41 1009.14 1009.04 1008.93 1008.41 1007.93 1007.56 1007.31 1007.63 1007.95 1008.25 1008.51 1008.61 1008.56 1008.61 1008.75 1008.93 1009.38 1009.67 1009.75 1009.92 1010.28 1010.55 1010.74 1011.20 1011.56 1011.93 1012.42 1012.52 1012.52 1012.76 1012.76 1013.00 1013.33 1013.61 1013.75 1013.76 1014.26 1014.67 1014.94 1015.28 1015.68 1016.01 1016.35 1016.62 1016.47 1016.80 1017.03 1016.85
1009.24 1008.33 1007.91 1007.61 1007.02 1006.64 1006.59 1006.61 1006.57 1006.25 1005.93 1006.20 1006.72 1006.94 1007.25 1007.18 1007.15 1007.50 1007.91 1008.10 1008.22 1008.83 1009.30 1009.53 1009.70 1009.62 1010.04 1010.36 1010.55 1010.79 1011.09 1011.63 1012.35 1012.89 1013.30 1013.73 1013.98 1014.19 1013.82 1013.81 1013.87 1014.01 1014.36 1014.77 1014.85 1015.17 1015.26 1015.49 1015.90 1016.12 1016.46 1016.90 1017.05 1017.06
1008.09 1007.14 1007.02 1006.73 1006.51 1005.95 1005.64 1005.39 1005.55 1005.39 1005.50 1005.79 1006.17 1006.61 1006.89 1007.13 1007.08 1006.91 1007.51 1007.99 1008.38 1008.64 1008.74 1008.89 1009.20 1009.59 1010.08 1010.47 1010.97 1011.11 1011.03 1011.11 1011.38 1012.12 1012.80 1013.32 1013.55 1013.58 1013.72 1013.95 1014.16 1014.42 1014.57 1014.95 1015.49 1015.75 1015.72 1015.91 1016.24 1016.50 1016.81 1016.94 1017.04 1017.07
1007.81 1007.15 1006.57 1006.29 1005.89 1005.38 1004.99 1004.79 1004.85 1005.04 1005.39 1005.90 1006.27 1006.87 1007.25 1007.46 1007.47 1007.29 1007.45 1007.61 1007.89 1008.15 1008.53 1008.90 1009.14 1009.20 1009.57 1010.04 1010.29 1010.71 1011.17 1011.09 1011.01 1011.28 1011.53 1012.27 1012.73 1013.06 1013.37 1013.60 1014.03 1014.55 1014.75 1014.67 1014.87 1015.42 1015.68 1016.03 1016.25 1016.33 1016.39 1016.53 1016.69 1016.87
1007.39 1007.16 1006.61 1006.05 1005.49 1004.89 1004.62 1004.93 1005.10 1005.47 1006.01 1006.25 1006.62 1006.79 1007.08 1007.38 1007.74 1007.61 1007.22 1007.35 1007.88 1008.07 1008.13 1008.36 1008.53 1008.87 1008.79 1009.05 1009.43 1009.81 1010.11 1010.83 1010.84 1011.04 1011.51 1012.03 1012.49 1012.76 1013.09 1013.34 1013.51 1013.77 1014.17 1014.52 1014.94 1015.04 1015.30 1015.52 1015.67 1015.80 1016.11 1016.15 1016.36 1016.35
1006.85 1006.39 1006.11 1005.75 1005.12 1004.86 1004.59 1004.65 1004.71 1005.02 1005.30 1005.83 1005.97 1006.23 1006.46 1006.80 1006.91 1006.63 1006.30 1006.35 1006.98 1007.26 1007.52 1007.55 1007.66 1007.99 1008.43 1008.99 1009.47 1009.93 1010.18 1010.54 1010.85 1011.12 1011.38 1011.74 1012.12 1012.56 1012.91 1013.13 1013.23 1013.43 1013.70 1014.19 1014.70 1014.84 1015.02 1015.17 1015.25 1015.24 1015.49 1015.64 1015.64 1015.66
Thickness
5566 5569 5570 5574 5576 5577 5578 5578 5578 5577 5575 5574 5573 5572 5569 5569 5571 5572 5573 5565 5563 5567 5580 5589 5590 5588 5590 5590 5592 5606 5612 5611 5617 5606 5610 5618 5626 5632 5639 5648 5639 5639 5627 5623 5628 5632 5632 5679 5692 5687 5684 5680 5674 5672
5560 5562 5565 5568 5571 5574 5576 5576 5575 5574 5572 5570 5568 5567 5565 5562 5558 5558 5564 5562 5556 5554 5569 5573 5580 5588 5589 5591 5584 5586 5597 5601 5606 5592 5593 5611 5614 5625 5631 5622 5647 5635 5643 5634 5638 5630 5653 5667 5672 5677 5680 5673 5663 5661
5553 5556 5560 5563 5567 5572 5574 5573 5572 5570 5569 5566 5564 5562 5559 5556 5552 5550 5552 5549 5546 5547 5554 5559 5576 5579 5582 5583 5584 5581 5589 5592 5591 5602 5603 5603 5611 5619 5612 5620 5638 5651 5653 5635 5635 5636 5645 5654 5660 5665 5668 5663 5661 5657
5550 5552 5555 5557 5560 5562 5564 5564 5565 5566 5566 5563 5560 5557 5553 5549 5546 5543 5544 5544 5542 5539 5545 5564 5577 5573 5582 5578 5578 5579 5579 5583 5585 5593 5598 5601 5605 5620 5614 5627 5634 5637 5648 5632 5624 5626 5636 5644 5651 5655 5655 5655 5651 5648
5547 5549 5550 5549 5549 5551 5553 5555 5557 5562 5565 5562 5557 5552 5548 5545 5542 5538 5539 5540 5538 5537 5543 5550 5566 5570 5571 5572 5573 5572 5573 5572 5575 5585 5595 5602 5611 5615 5616 5622 5621 5632 5630 5621 5617 5637 5634 5635 5643 5646 5643 5643 5643 5641
5543 5543 5542 5542 5543 5543 5544 5545 5547 5551 5555 5555 5550 5545 5542 5540 5536 5534 5534 5532 5532 5530 5533 5542 5556 5561 5562 5561 5564 5565 5566 5565 5568 5589 5600 5609 5621 5609 5598 5593 5623 5631 5640 5643 5632 5636 5635 5634 5637 5640 5636 5637 5637 5634
5538 5538 5537 5536 5537 5537 5538 5539 5540 5541 5543 5545 5544 5540 5537 5534 5531 5530 5530 5530 5529 5527 5530 5540 5548 5551 5557 5556 5556 5559 5559 5567 5584 5591 5594 5603 5606 5603 5593 5591 5615 5620 5633 5638 5638 5635 5623 5627 5623 5628 5628 5626 5625 5620
5535 5534 5534 5534 5534 5535 5535 5535 5535 5533 5531 5531 5532 5531 5529 5526 5524 5525 5522 5523 5521 5522 5527 5541 5542 5547 5547 5547 5549 5562 5575 5582 5588 5597 5595 5596 5596 5591 5586 5600 5611 5614 5623 5624 5626 5628 5624 5620 5619 5617 5616 5613 5607 5602
5531 5531 5532 5533 5533 5533 5533 5533 5532 5530 5527 5526 5525 5525 5525 5526 5527 5521 5519 5518 5518 5519 5527 5540 5538 5537 5540 5544 5556 5574 5580 5571 5588 5589 5596 5595 5585 5586 5602 5607 5606 5610 5617 5614 5617 5619 5616 5614 5612 5612 5610 5606 5599 5594
5529 5530 5530 5531 5532 5532 5533 5535 5536 5536 5534 5531 5528 5529 5532 5529 5527 5524 5521 5521 5520 5526 5531 5541 5544 5545 5549 5560 5566 5575 5578 5577 5576 5586 5591 5587 5586 5604 5609 5614 5613 5613 5618 5619 5611 5607 5609 5608 5604 5603 5601 5600 5597 5593
5528 5528 5529 5529 5530 5531 5532 5534 5536 5538 5539 5534 5533 5530 5529 5528 5527 5532 5536 5535 5535 5538 5541 5550 5549 5551 5566 5566 5568 5575 5572 5575 5573 5580 5580 5579 5582 5599 5610 5613 5613 5614 5616 5616 5613 5608 5606 5602 5597 5595 5593 5593 5591 5590
5525 5527 5528 5529 5530 5530 5531 5532 5533 5533 5531 5530 5527 5528 5530 5531 5536 5539 5541 5550 5551 5547 5551 5551 5558 5558 5565 5569 5571 5571 5575 5572 5568 5579 5576 5577 5585 5601 5608 5607 5603 5608 5608 5605 5603 5600 5597 5595 5591 5589 5586 5585 5583 5581
5525 5526 5527 5529 5529 5529 5529 5530 5530 5532 5537 5535 5533 5535 5532 5533 5534 5541 5534 5536 5542 5546 5551 5555 5561 5565 5560 5558 5558 5556 5565 5562 5573 5567 5571 5577 5585 5593 5601 5601 5595 5596 5596 5594 5591 5589 5587 5586 5586 5584 5580 5579 5575 5572
5525 5526 5528 5529 5528 5528 5529 5529 5530 5532 5531 5534 5537 5521 5537 5538 5536 5533 5534 5538 5542 5546 5551 5552 5553 5553 5550 5548 5547 5549 5560 5560 5554 5556 5569 5567 5575 5585 5589 5593 5592 5587 5586 5583 5579 5578 5576 5574 5573 5573 5572 5570 5567 5563
5525 5527 5528 5530 5531 5530 5530 5531 5532 5530 5532 5533 5537 5529 5536 5532 5537 5542 5540 5537 5542 5544 5545 5545 5545 5544 5540 5540 5536 5548 5556 5551 5541 5540 5551 5557 5559 5565 5569 5576 5577 5573 5570 5566 5564 5563 5562 5562 5562 5560 5560 5559 5557 5554
5525 5528 5528 5531 5532 5532 5532 5533 5536 5534 5535 5535 5536 5531 5528 5528 5525 5533 5533 5530 5533 5539 5540 5534 5537 5536 5525 5528 5536 5540 5541 5535 5541 5537 5543 5551 5552 5552 5554 5556 5554 5553 5551 5549 5549 5550 5552 5553 5549 5547 5549 5549 5547 5546
5524 5527 5529 5532 5532 5534 5534 5529 5533 5535 5534 5536 5530 5530 5524 5521 5520 5521 5522 5522 5529 5532 5520 5523 5527 5517 5517 5526 5531 5520 5528 5522 5521 5526 5536 5542 5542 5539 5540 5541 5540 5540 5539 5538 5538 5537 5540 5539 5539 5538 5533 5531 5536 5537
5524 5527 5528 5530 5531 5533 5534 5530 5532 5533 5534 5526 5520 5520 5523 5519 5516 5515 5516 5517 5520 5513 5507 5507 5502 5499 5503 5510 5512 5505 5509 5513 5513 5521 5526 5532 5532 5526 5523 5523 5524 5528 5527 5528 5530 5527 5525 5525 5524 5521 5519 5523 5525 5526
5525 5527 5528 5529 5528 5524 5532 5537 5536 5532 5529 5528 5522 5521 5519 5516 5515 5514 5511 5509 5508 5503 5496 5499 5498 5489 5489 5491 5493 5496 5499 5502 5509 5511 5517 5519 5521 5520 5518 5519 5520 5517 5514 5517 5516 5516 5515 5515 5509 5507 5508 5512 5512 5516
5527 5531 5532 5530 5527 5527 5534 5535 5542 5535 5532 5527 5528 5523 5516 5511 5510 5509 5506 5505 5500 5499 5496 5490 5481 5485 5481 5483 5484 5487 5490 5495 5498 5502 5503 5505 5506 5507 5507 5506 5506 5504 5504 5505 5503 5501 5503 5501 5500 5503 5504 5504 5504 5507
5528 5533 5534 5530 5528 5524 5530 5535 5537 5535 5536 5534 5527 5522 5513 5513 5509 5507 5504 5504 5496 5495 5491 5486 5482 5479 5479 5479 5476 5476 5481 5486 5488 5491 5491 5491 5490 5494 5493 5491 5494 5497 5496 5492 5491 5491 5490 5488 5490 5492 5494 5494 5494 5495
5530 5532 5531 5530 5532 5537 5532 5540 5533 5535 5538 5534 5529 5527 5517 5514 5509 5509 5506 5499 5494 5492 5491 5487 5484 5480 5478 5474 5473 5477 5477 5478 5479 5479 5480 5481 5480 5480 5480 5482 5481 5481 5481 5482 5482 5481 5479 5480 5480 5481 5481 5482 5483 5483
5533 5535 5537 5540 5537 5525 5533 5543 5539 5539 5534 5530 5529 5521 5520 5515 5518 5518 5502 5499 5496 5496 5493 5489 5488 5485 5482 5481 5479 5477 5475 5473 5473 5474 5475 5475 5475 5474 5474 5475 5476 5475 5475 5478 5479 5476 5473 5473 5472 5473 5474 5473 5472 5471
5534 5536 5538 5538 5539 5529 5546 5545 5542 5538 5536 5532 5531 5535 5532 5529 5526 5516 5505 5498 5496 5495 5492 5491 5487 5483 5482 5482 5479 5478 5478 5476 5475 5474 5474 5473 5472 5474 5475 5475 5477 5478 5480 5473 5470 5467 5465 5466 5465 5465 5464 5464 5462 5459
5528 5533 5528 5517 5537 5544 5547 5546 5542 5538 5534 5537 5539 5544 5537 5533 5520 5519 5510 5501 5495 5494 5494 5494 5492 5489 5485 5484 5484 5484 5485 5482 5479 5477 5478 5476 5476 5472 5471 5473 5469 5468 5467 5463 5459 5457 5458 5460 5460 5459 5457 5454 5452 5450
5529 5540 5534 5551 5545 5542 5542 5533 5536 5537 5535 5539 5541 5547 5541 5529 5524 5524 5521 5517 5509 5504 5502 5501 5498 5494 5493 5492 5489 5488 5489 5487 5483 5480 5481 5481 5480 5475 5471 5467 5464 5462 5462 5459 5454 5451 5450 5451 5450 5447 5443 5442 5442 5446
5531 5547 5551 5552 5543 5542 5538 5541 5544 5539 5542 5544 5551 5551 5544 5537 5536 5536 5533 5532 5525 5522 5521 5519 5517 5513 5508 5508 5503 5501 5500 5495 5491 5491 5490 5486 5483 5482 5476 5469 5465 5463 5463 5456 5451 5447 5443 5441 5437 5437 5437 5434 5433 5437
5553 5556 5553 5560 5553 5549 5559 5552 5551 5554 5558 5560 5564 5558 5554 5551 5546 5545 5544 5544 5542 5538 5533 5529 5526 5524 5521 5515 5511 5506 5501 5498 5492 5489 5488 5484 5482 5478 5474 5469 5466 5465 5461 5455 5450 5444 5440 5436 5433 5431 5433 5430 5429 5434
5560 5569 5572 5573 5581 5581 5578 5573 5573 5575 5579 5575 5568 5565 5563 5564 5563 5559 5554 5552 5549 5543 5538 5533 5531 5530 5523 5519 5516 5514 5510 5504 5495 5485 5478 5472 5471 5468 5468 5466 5463 5461 5456 5450 5447 5443 5441 5437 5433 5432 5427 5422 5421 5423
5568 5578 5578 5579 5580 5585 5584 5585 5583 5587 5584 5580 5576 5571 5567 5565 5565 5566 5560 5555 5550 5546 5545 5542 5538 5534 5526 5521 5515 5514 5512 5511 5506 5496 5485 5479 5476 5474 5470 5466 5462 5457 5454 5448 5440 5435 5433 5432 5430 5426 5421 5418 5420 5423
5570 5577 5581 5584 5585 5588 5591 5594 5593 5590 5587 5580 5578 5569 5565 5563 5563 5564 5561 5559 5556 5553 5549 5544 5541 5539 5534 5527 5523 5519 5513 5514 5513 5508 5504 5494 5487 5480 5476 5473 5466 5458 5453 5449 5445 5439 5436 5434 5431 5429 5430 5430 5429 5429
5571 5575 5578 5582 5585 5594 5597 5591 5588 5583 5580 5576 5573 5572 5570 5564 5558 5560 5564 5561 5556 5553 5552 5549 5545 5541 5542 5540 5536 5531 5527 5520 5518 5514 5508 5501 5494 5489 5484 5478 5473 5467 5461 5456 5450 5449 5447 5444 5441 5441 5438 5439 5438 5440
5576 5580 5582 5586 5591 5595 5597 5598 5598 5594 5589 5582 5579 5576 5573 5568 5566 5569 5573 5571 5564 5560 5557 5557 5556 5552 5548 5542 5537 5532 5529 5525 5521 5517 5512 5508 5503 5497 5490 5486 5482 5478 5472 5466 5461 5458 5457 5455 5452 5452 5450 5450 5450 5452